Back to catalog

ATLAS 5 CENTAUR DEB

AliveHEO
NORAD 44670·DEBRIS·🇺🇸 United States

Launched Oct 17, 2018 from Cape Canaveral Space Force Station

Loading…

Next Passes (next 24 hours)

TLE

FreshSource: Space-Track

Epoch: Sep 13, 2026, 11:58 UTC

1 44670U 18079AG  26256.49891772 -.00000177  00000-0  00000+0 0  9999
2 44670  13.3891  27.5354 4649728 331.4676   9.4315  1.82910800 48670

Track ATLAS 5 CENTAUR DEB in real time with AllMySat

Download on the App Store